Regional Weather Roundup
Issued by NWS

Home | Current Version | Previous Version | Graphics & Text | Print | Product List | Glossary On
Versions: 1 2 3 4 5 6 7 8 9 10 11 12 13 14 15 16 17 18 19 20 21 22 23 24 25 26 27 28 29 30 31 32 33 34 35 36 37 38 39 40 41 42 43 44 45 46 47 48 49 50
000
ASUS43 KIND 060159
RWRIN

WEATHER ROUNDUP FOR INDIANA
NATIONAL WEATHER SERVICE INDIANAPOLIS IN
900 PM EST THU MAR 05 2015

NOTE: "FAIR" INDICATES FEW OR NO CLOUDS BELOW 12,000 FEET WITH NO
SIGNIFICANT WEATHER AND/OR OBSTRUCTIONS TO VISIBILITY.

* - STATION DOES NOT REPORT WEATHER SUCH AS PRECIPITATION OR FOG.

+ - STATION NOT QUALITY CONTROLLED BY THE NATIONAL WEATHER SERVICE.
    USE DATA WITH CAUTION...ESPECIALLY DEWPOINT AND RELATIVE
    HUMIDITY OBSERVATIONS.

INZ001>003-010>013-019-020-060300-
NORTHWEST INDIANA

CITY           SKY/WX    TMP DP  RH WIND       PRES   REMARKS
GARY /AIRPORT/ CLEAR     14  -4  44 W15       30.56R WCI  -1
VALPARAISO     NOT AVBL

$$

LMZ046-743>745-060300-
SOUTHERN LAKE MICHIGAN

STATION/POSITION TIME  TEMP WIND        PRES
                       AIR  DIR/SP/G
                 (UTC) (F)  (DEG/KT/KT) (MB)
MICHIGAN CITY    0100   14   CALM  /  1   N/A

$$

INZ004-005-014>016-021>024-060300-
NORTH CENTRAL INDIANA

CITY           SKY/WX    TMP DP  RH WIND       PRES   REMARKS
ELKHART        CLEAR     10   1  67 CALM      30.52R
GOSHEN         CLEAR     11   2  67 W5        30.51R WCI   3
SOUTH BEND     CLEAR      7  -1  70 CALM      30.52R

$$

INZ006>009-017-018-025>027-060300-
NORTHEAST INDIANA

CITY           SKY/WX    TMP DP  RH WIND       PRES   REMARKS
ANGOLA *+      PTCLDY    12   9  85 W3        30.47R
FORT WAYNE     CLEAR     11   3  70 NW5       30.52R WCI   3

$$

INZ028-029-035-036-043>045-051>053-060300-
WEST CENTRAL INDIANA

CITY           SKY/WX    TMP DP  RH WIND       PRES   REMARKS
CRAWFORDSVL +  PTCLDY     6  -6  57 W5        30.56R WCI  -3
GREENCASTLE +  PTCLDY    12   0  57 N6        30.55S WCI   3
LAFAYETTE      PTCLDY     9  -1  64 W3        30.58R
TERRE HAUTE    CLEAR     10   0  63 NW3       30.59S

$$

INZ030>032-037>040-046>048-054>057-064-065-060300-
CENTRAL INDIANA

CITY           SKY/WX    TMP DP  RH WIND       PRES   REMARKS
CP ATTERBURY + CLEAR     18   9  68 NW7       30.55S WCI   8
COLUMBUS       CLEAR     16   3  57 NW7       30.55R WCI   6
FRANKFORT +    PTCLDY     1  -4  80 W7        30.56R WCI -12
GREENWOOD *+   CLEAR     14   3  62 NW7       30.54R WCI   4
INDIANAPOLIS   CLEAR     12   2  64 NW9       30.53R WCI   0
-EAGLE CREEK   PTCLDY    12   2  64 NW8       30.54R WCI   0
KOKOMO *+      PTCLDY     9   0  66 W9        30.54R WCI  -5
MT COMFORT *+  PTCLDY    12   1  62 NW7       30.54R WCI   2
SHELBYVILLE    PTCLDY    13   7  77 NW3       30.53R

$$

INZ033-034-041-042-049-050-058-059-060300-
EAST CENTRAL INDIANA

CITY           SKY/WX    TMP DP  RH WIND       PRES   REMARKS
MUNCIE         PTCLDY    13   6  74 W6        30.52R WCI   4

$$

INZ060-061-067>069-081>083-085>088-060300-
SOUTHWEST INDIANA

CITY           SKY/WX    TMP DP  RH WIND       PRES   REMARKS
EVANSVILLE     PTCLDY    15   3  59 NW5       30.61R WCI   8
HUNTINGBURG *+ PTCLDY    12   0  57 NW7       30.58S WCI   2

$$

INZ062-063-066-070>080-084-089>092-060300-
SOUTH CENTRAL AND SOUTHEAST INDIANA

CITY           SKY/WX    TMP DP  RH WIND       PRES   REMARKS
BLOOMINGTON    CLEAR     15   5  64 NW3       30.54R
SEYMOUR +      CLEAR     14   7  73 N3        30.55R

$$




USA.gov is the U.S. government's official web portal to all federal, state and local government web resources and services.